Weather History for Jackson, WY

Change the Weather History Date:

Wednesday, June 26, 2013

  Actual Average Record
Temperature  
Mean Temperature 58 °F -  
Max Temperature 75 °F 71 °F 90 °F (1988)
Min Temperature 42 °F 37 °F 26 °F (1999)
Degree Days  
Heating Degree Days 6    
Growing Degree Days 8 (Base 50)    
Moisture  
Dew Point 46 °F    
Average Humidity 71    
Maximum Humidity 100    
Minimum Humidity 29    
Precipitation  
Precipitation 0.00 in - - ()
Sea Level Pressure  
Sea Level Pressure 30.21 in    
Wind  
Wind Speed 5 mph (WSW)    
Max Wind Speed 20 mph    
Max Gust Speed 29 mph    
Visibility 10 miles    
Events      
Averages and records for this station are not official NWS values.
T = Trace of Precipitation, MM = Missing Value Source: NWS Daily Summary

Daily Weather History Graph

Daily Weather History Graph

Search for Another Location

Airport:

Trip Planner

Search our weather history database for the weather conditions in past years. The results will help you decide how hot, cold, wet, or windy it might be!

Date:

Astronomy

Jun. 26, 2013 Rise Set
Actual Time 5:43 AM MDT 9:08 PM MDT
Civil Twilight 5:07 AM MDT 9:44 PM MDT
Nautical Twilight 4:20 AM MDT 10:31 PM MDT
Astronomical Twilight 3:21 AM MDT 11:30 PM MDT
Moon 11:24 PM MDT (6/26) 9:46 AM MDT (6/26)
Length of Visible Light 16h 37m
Length of Day
15h 25m
Waning Gibbous, 85% of the Moon is Illuminated
Jun 26
Waning Gibbous
Jun 29
Last Quarter
Jul 8
New
Jul 15
First Quarter
Jul 22
Full

Hourly Weather History & Observations

Time (MDT) Temp. Windchill Dew Point Humidity Pressure Visibility Wind Dir Wind Speed Gust Speed Precip Events Conditions
12:15 AM 51.8 °F - 50.0 °F 94% 30.14 in 10.0 mi NNW 6.9 mph - N/A   Mostly Cloudy
12:35 AM 50.0 °F - 50.0 °F 100% 30.14 in 10.0 mi NNW 3.5 mph - N/A   Partly Cloudy
12:55 AM 51.8 °F - 50.0 °F 94% 30.14 in 10.0 mi Calm Calm - N/A   Partly Cloudy
1:15 AM 48.2 °F - 46.4 °F 93% 30.14 in 10.0 mi Calm Calm - N/A   Mostly Cloudy
1:35 AM 48.2 °F - 46.4 °F 93% 30.14 in 10.0 mi Calm Calm - N/A   Mostly Cloudy
1:55 AM 46.4 °F 43.5 °F 44.6 °F 93% 30.14 in 9.0 mi NNW 5.8 mph - N/A   Scattered Clouds
2:15 AM 46.4 °F 45.2 °F 44.6 °F 93% 30.14 in 8.0 mi ENE 3.5 mph - N/A   Clear
2:55 AM 48.2 °F - 46.4 °F 93% 30.15 in 10.0 mi Calm Calm - N/A   Partly Cloudy
3:15 AM 46.4 °F - 46.4 °F 100% 30.15 in 10.0 mi Calm Calm - N/A   Scattered Clouds
3:55 AM 42.8 °F 39.3 °F 42.8 °F 100% 30.16 in 0.5 mi North 5.8 mph - N/A   Overcast
4:15 AM 44.6 °F 43.1 °F 44.6 °F 100% 30.16 in 10.0 mi North 3.5 mph - N/A   Overcast
4:35 AM 46.4 °F - 46.4 °F 100% 30.17 in 10.0 mi Calm Calm - N/A   Overcast
4:55 AM 46.4 °F - 46.4 °F 100% 30.17 in 10.0 mi Calm Calm - N/A   Overcast
5:15 AM 46.4 °F - 46.4 °F 100% 30.18 in 10.0 mi Calm Calm - N/A   Overcast
5:35 AM 46.4 °F - 46.4 °F 100% 30.18 in 10.0 mi Calm Calm - N/A   Overcast
5:55 AM 46.4 °F - 46.4 °F 100% 30.18 in 10.0 mi Calm Calm - N/A   Mostly Cloudy
6:15 AM 44.6 °F - 42.8 °F 93% 30.19 in 10.0 mi Calm Calm - N/A   Mostly Cloudy
6:51 AM 46.4 °F - 46.4 °F 100% 30.20 in 2.0 mi Calm Calm - N/A   Overcast
7:54 AM 48.2 °F - 46.4 °F 93% 30.21 in 7.0 mi Calm Calm - N/A   Overcast
8:54 AM 53.6 °F - 51.8 °F 94% 30.22 in 10.0 mi Calm Calm - N/A   Overcast
9:06 AM 53.6 °F - 51.8 °F 94% 30.23 in 10.0 mi SE 3.5 mph - N/A   Overcast
9:58 AM 57.2 °F - 53.6 °F 88% 30.23 in 10.0 mi ESE 4.6 mph - N/A   Mostly Cloudy
10:54 AM 62.6 °F - 51.8 °F 68% 30.24 in 10.0 mi SW 9.2 mph - N/A   Overcast
11:51 AM 69.8 °F - 46.4 °F 43% 30.24 in 10.0 mi South 13.8 mph 17.3 mph N/A   Scattered Clouds
12:51 PM 69.8 °F - 46.4 °F 43% 30.24 in 10.0 mi South 13.8 mph - N/A   Mostly Cloudy
1:54 PM 71.6 °F - 46.4 °F 41% 30.24 in 10.0 mi South 15.0 mph 21.9 mph N/A   Mostly Cloudy
2:53 PM 71.6 °F - 44.6 °F 38% 30.23 in 10.0 mi SSW 9.2 mph 16.1 mph N/A   Mostly Cloudy
3:53 PM 75.2 °F - 42.8 °F 31% 30.22 in 10.0 mi WSW 19.6 mph 23.0 mph N/A   Scattered Clouds
4:51 PM 75.2 °F - 41.0 °F 29% 30.22 in 10.0 mi WSW 16.1 mph 26.5 mph N/A   Scattered Clouds
5:52 PM 75.2 °F - 41.0 °F 29% 30.22 in 10.0 mi WSW 18.4 mph 28.8 mph N/A   Scattered Clouds
6:51 PM 75.2 °F - 42.8 °F 31% 30.22 in 10.0 mi SW 17.3 mph 23.0 mph N/A   Scattered Clouds
7:51 PM 73.4 °F - 44.6 °F 36% 30.23 in 10.0 mi SW 11.5 mph - N/A   Clear
8:51 PM 68.0 °F - 44.6 °F 43% 30.24 in 10.0 mi West 5.8 mph - N/A   Clear
8:55 PM 68.0 °F - 44.6 °F 43% 30.24 in 10.0 mi West 4.6 mph - N/A   Clear
9:15 PM 64.4 °F - 46.4 °F 52% 30.25 in 10.0 mi WSW 3.5 mph - N/A   Clear
9:35 PM 64.4 °F - 46.4 °F 52% 30.26 in 10.0 mi WSW 4.6 mph - N/A   Clear
9:55 PM 62.6 °F - 46.4 °F 55% 30.27 in 10.0 mi West 8.1 mph - N/A   Clear
10:15 PM 64.4 °F - 46.4 °F 52% 30.28 in 10.0 mi WSW 10.4 mph - N/A   Clear
10:35 PM 68.0 °F - 46.4 °F 46% 30.29 in 10.0 mi West 11.5 mph 20.7 mph N/A   Clear
10:55 PM 66.2 °F - 46.4 °F 49% 30.29 in 10.0 mi ESE 5.8 mph - N/A   Clear
11:15 PM 62.6 °F - 46.4 °F 55% 30.30 in 10.0 mi East 3.5 mph - N/A   Clear
11:35 PM 60.8 °F - 46.4 °F 59% 30.30 in 10.0 mi Calm Calm - N/A   Clear
11:55 PM 62.6 °F - 46.4 °F 55% 30.31 in 10.0 mi Calm Calm - N/A   Clear